[[{"header":{"parameterUnit":"m.s-1","parameterCategory":1,"la1":30.2991,"la2":30.254,"lo1":-89.0895,"lo2":-89.0444,"dy":0.0017,"dx":0.0017,"nx":28,"ny":28,"refTime":"2024-06-22T21:00:00:Z","depth":0,"parameterNumber":2,"parameterNumberName":"U-component_of_WINDS"},"data":[0,0,0,0,0,0,0,0,0,0,0,0,0,0,0,0,0,0,0,0,0,0,0,0,0,0,0,0,0,0,0,0,0,0,0,0,0,0,0,0,0,0,0,0,0,0,0,0,0,0,0,0,0,0,0,0,0,0,0.4781,0.4782,0,0.4891,0.4892,0.4893,0.4943,0.4943,0.4943,0.4943,0.5054,0.5057,0.506,0,0,0,0,0,0,0,0,0,0,0,0,0,0.4611,0.4614,0.4781,0.4782,0.4783,0.4891,0.4892,0.4894,0.4943,0.4943,0.4943,0.4943,0.5053,0.5057,0.506,0,0,0,0,0,0,0,0,0,0,0,0,0,0.4699,0.4614,0.478,0.4821,0.4826,0.489,0.4892,0.4894,0.4943,0.4943,0.4943,0.4943,0.5052,0.5056,0.5061,0.5093,0,0,0.5075,0.5077,0,0,0,0,0,0,0,0,0.4694,0.4705,0.4814,0.4818,0.4824,0.4903,0.4873,0.4961,0.4943,0.4898,0.4943,0.4942,0.5004,0.5012,0.5033,0.5098,0.5103,0.5075,0.5078,0.508,0.5081,0,0,0,0,0,0,0,0.4688,0.4701,0.4824,0.4815,0.4821,0.4833,0.4845,0.489,0.4951,0.4902,0.4906,0.4919,0.5006,0.5029,0.5036,0.5104,0.5075,0.5079,0.5082,0.5084,0.52,0.52,0,0,0,0,0,0,0.4675,0.4695,0.4821,0.4827,0.4757,0.4836,0.485,0.4878,0.495,0.4961,0.4919,0.4921,0.5021,0.5031,0.504,0.5082,0.508,0.5084,0.5087,0.5199,0.52,0.52,0,0,0,0,0,0,0.4671,0.4686,0.4816,0.4762,0.478,0.4839,0.487,0.488,0.4902,0.4963,0.4974,0.493,0.5021,0.5034,0.5079,0.5087,0.5086,0.5091,0.5199,0.52,0.52,0.5167,0,0,0,0,0,0,0.4666,0.4684,0.4698,0.4762,0.4783,0.4854,0.4871,0.4882,0.491,0.4914,0.4977,0.4987,0.5022,0.5072,0.5084,0.5093,0.5094,0.5199,0.5199,0.52,0.5167,0.5166,0.5165,0,0,0,0,0,0.466,0.4684,0.4698,0.4713,0.4801,0.4854,0.4866,0.4906,0.4911,0.4924,0.4963,0.4985,0.5084,0.5076,0.509,0.5101,0.5198,0.5199,0.52,0.5168,0.5166,0.5165,0,0,0,0,0,0,0.4618,0.4693,0.471,0.4755,0.4798,0.4862,0.4881,0.4903,0.4945,0.4947,0.4994,0.5008,0.5049,0.508,0.507,0.5135,0.5143,0.5147,0.5114,0.5113,0.5112,0.5104,0.5098,0,0,0,0,0,0.4614,0.4652,0.4715,0.4749,0.4769,0.4821,0.4846,0.4873,0.492,0.4938,0.498,0.5023,0.5064,0.509,0.5131,0.5172,0.5186,0.5186,0.5184,0.5183,0.5186,0.5209,0.521,0.5203,0.5203,0.5203,0,0,0.4606,0.4651,0.4672,0.4741,0.4778,0.4815,0.4836,0.4875,0.4903,0.4944,0.4989,0.5021,0.5073,0.5116,0.5137,0.5142,0.519,0.5184,0.5182,0.5186,0.521,0.521,0.5211,0.5203,0.5203,0.5203,0,0,0.4611,0.4649,0.4681,0.4717,0.4772,0.4807,0.4814,0.4875,0.4898,0.4945,0.4976,0.5009,0.5079,0.5114,0.5141,0.5158,0.518,0.517,0.5164,0.5186,0.5186,0.5187,0.5193,0.5195,0.5172,0.5172,0.5172,0,0.4594,0.4652,0.4695,0.4732,0.4761,0.48,0.4832,0.4865,0.493,0.4949,0.4954,0.5042,0.5079,0.5131,0.5135,0.5156,0.5165,0.5164,0.5183,0.5184,0.5185,0.5192,0.5194,0.5171,0.5171,0.5171,0.5171,0,0.4628,0.4668,0.4688,0.475,0.4782,0.4816,0.4863,0.489,0.4914,0.4947,0.4993,0.5039,0.509,0.5104,0.5128,0.5159,0.5161,0.5174,0.5183,0.5184,0.519,0.5193,0.5169,0.5169,0.517,0.517,0,0,0.4611,0.4696,0.4703,0.4731,0.4794,0.4826,0.4861,0.4911,0.4933,0.4976,0.5007,0.5064,0.5077,0.5107,0.5135,0.5155,0.5165,0.5165,0.5167,0.5164,0.5201,0.5192,0.5194,0.5179,0.518,0.518,0.5197,0,0.4624,0.4692,0.4731,0.4781,0.4819,0.4855,0.4886,0.4927,0.4959,0.4994,0.5029,0.5069,0.5082,0.5101,0.5122,0.5159,0.5173,0.5158,0.5208,0.5209,0.5195,0.5197,0.5187,0.5201,0.52,0.52,0.5201,0,0.465,0.4693,0.4747,0.4806,0.4823,0.485,0.4899,0.4933,0.498,0.5001,0.5035,0.5063,0.5101,0.5106,0.516,0.5149,0.5171,0.5193,0.5194,0.5201,0.5206,0.5204,0.5207,0.5209,0.5205,0.5205,0.5205,0,0.4631,0.4703,0.4745,0.4768,0.4837,0.4856,0.4885,0.4932,0.496,0.5002,0.502,0.5066,0.5091,0.5125,0.5164,0.5164,0.5213,0.5222,0.5232,0.5231,0.5242,0.5241,0.5248,0.5255,0.5255,0.5255,0.5255,0,0.4643,0.4675,0.4738,0.4763,0.48,0.4844,0.4878,0.4911,0.4952,0.4984,0.5018,0.5047,0.5097,0.5132,0.5162,0.5202,0.5213,0.5231,0.5239,0.5228,0.5226,0.5244,0.5244,0.5256,0.5255,0.5255,0.5255,0,0.4629,0.4673,0.4721,0.4782,0.4798,0.4822,0.4874,0.49,0.4933,0.4973,0.4985,0.5037,0.508,0.5122,0.518,0.52,0.5239,0.5249,0.5223,0.5228,0.5236,0.5235,0.5256,0.526,0.5263,0.5263,0.5263,0,0.4634,0.466,0.4724,0.4748,0.4777,0.4815,0.4844,0.4887,0.4915,0.497,0.4989,0.5035,0.5074,0.514,0.5182,0.5226,0.5238,0.5243,0.5245,0.5234,0.5239,0.5237,0.524,0.5241,0.5241,0.5241,0.5241,0,0.4638,0.4658,0.4698,0.4745,0.4778,0.4817,0.4857,0.4874,0.4926,0.4955,0.5,0.5029,0.5088,0.5133,0.5181,0.5211,0.5234,0.5239,0.5244,0.5234,0.5218,0.5227,0.522,0.5239,0.5239,0.5239,0.5239,0.5239,0.4634,0.4659,0.4708,0.4751,0.4785,0.4822,0.4849,0.4885,0.4924,0.4975,0.4998,0.5043,0.5089,0.5157,0.5186,0.5221,0.5227,0.5234,0.5236,0.5237,0.5234,0.5212,0.523,0.523,0.523,0.523,0.523,0,0.464,0.4673,0.4713,0.4768,0.4801,0.482,0.4865,0.4892,0.4931,0.4972,0.501,0.506,0.5103,0.5149,0.5194,0.5214,0.5225,0.5224,0.5223,0.523,0.5226,0.5218,0.5214,0.5214,0.5214,0.5214,0.5214,0.5214,0.4647,0.469,0.4715,0.4774,0.4807,0.4852,0.4876,0.4909,0.4942,0.4998,0.5034,0.5063,0.5106,0.5155,0.5195,0.5207,0.5222,0.5218,0.5233,0.5229,0.523,0.5231,0.5223,0.5221,0.5221,0.5234,0.5234,0.5234]},{"header":{"parameterUnit":"m.s-1","parameterCategory":1,"la1":30.2991,"la2":30.254,"lo1":-89.0895,"lo2":-89.0444,"dy":0.0017,"dx":0.0017,"nx":28,"ny":28,"refTime":"2024-06-22T21:00:00:Z","depth":0,"parameterNumber":3,"parameterNumberName":"V-component_of_WINDS"},"data":[0,0,0,0,0,0,0,0,0,0,0,0,0,0,0,0,0,0,0,0,0,0,0,0,0,0,0,0,0,0,0,0,0,0,0,0,0,0,0,0,0,0,0,0,0,0,0,0,0,0,0,0,0,0,0,0,0,0,5.0702,5.0702,0,5.0693,5.0693,5.0693,5.0638,5.0637,5.0635,5.0634,5.0626,5.0627,5.0628,0,0,0,0,0,0,0,0,0,0,0,0,0,5.0672,5.0673,5.0702,5.0702,5.0701,5.0693,5.0693,5.0693,5.0638,5.0637,5.0635,5.0633,5.0625,5.0626,5.0628,0,0,0,0,0,0,0,0,0,0,0,0,0,5.0676,5.0673,5.0702,5.0673,5.0671,5.0693,5.0693,5.0693,5.0639,5.0637,5.0635,5.0633,5.0625,5.0626,5.0628,5.0677,0,0,5.0632,5.0633,0,0,0,0,0,0,0,0,5.0676,5.0677,5.0678,5.0675,5.0672,5.0664,5.0679,5.0687,5.0639,5.0651,5.0634,5.0632,5.064,5.064,5.0643,5.0677,5.0676,5.0633,5.0634,5.0634,5.0635,0,0,0,0,0,0,0,5.0676,5.0678,5.0698,5.0678,5.0674,5.0661,5.066,5.068,5.0657,5.065,5.0646,5.0645,5.0638,5.0642,5.0642,5.0676,5.0633,5.0634,5.0635,5.0635,5.0749,5.0751,0,0,0,0,0,0,5.068,5.0678,5.0698,5.0698,5.0669,5.0663,5.0662,5.0669,5.0656,5.0652,5.0647,5.0643,5.064,5.0641,5.0642,5.0698,5.0634,5.0636,5.0636,5.0747,5.075,5.0752,0,0,0,0,0,0,5.0679,5.0682,5.0699,5.0687,5.0688,5.0666,5.0675,5.067,5.0673,5.0654,5.065,5.0655,5.0639,5.064,5.0669,5.0697,5.0636,5.0638,5.0745,5.0748,5.0751,5.0812,0,0,0,0,0,0,5.0678,5.0682,5.07,5.0688,5.0689,5.0726,5.0677,5.0671,5.0676,5.067,5.066,5.0657,5.0637,5.0667,5.067,5.0698,5.0639,5.0742,5.0746,5.075,5.0807,5.0817,5.0825,0,0,0,0,0,5.0678,5.0718,5.0701,5.0704,5.0711,5.0727,5.0728,5.0704,5.0678,5.0697,5.0685,5.0657,5.0694,5.067,5.0673,5.0703,5.074,5.0745,5.075,5.0803,5.0815,5.0825,0,0,0,0,0,0,5.0735,5.0716,5.0697,5.0735,5.0733,5.0718,5.074,5.0717,5.0723,5.0718,5.0688,5.0686,5.072,5.0714,5.0688,5.0749,5.0712,5.0718,5.0752,5.0763,5.0771,5.0772,5.064,0,0,0,0,0,5.0752,5.0766,5.0749,5.0784,5.0784,5.0762,5.0769,5.075,5.0748,5.0747,5.0737,5.0735,5.0746,5.0754,5.0764,5.0806,5.0803,5.0828,5.0837,5.0844,5.085,5.0872,5.0882,5.0768,5.0768,5.0768,0,0,5.0787,5.0778,5.0789,5.0795,5.0791,5.0807,5.0762,5.0781,5.0793,5.075,5.0776,5.0769,5.0765,5.0801,5.0817,5.0798,5.0881,5.085,5.0857,5.0858,5.0878,5.0889,5.0898,5.0771,5.0771,5.077,0,0,5.0859,5.0854,5.0882,5.088,5.0875,5.0861,5.0868,5.0856,5.085,5.0876,5.0844,5.0858,5.0877,5.0876,5.0878,5.0951,5.0925,5.0954,5.1,5.1023,5.1032,5.1039,5.1065,5.1075,5.096,5.096,5.096,0,5.0903,5.0925,5.0899,5.092,5.0924,5.0886,5.0914,5.0913,5.0912,5.0916,5.0894,5.0918,5.0913,5.0949,5.0966,5.0969,5.0976,5.0955,5.1032,5.104,5.1047,5.1071,5.1081,5.0963,5.0963,5.0963,5.0962,0,5.098,5.0996,5.1019,5.1019,5.1025,5.105,5.1028,5.1038,5.1019,5.1007,5.1035,5.1027,5.1034,5.1041,5.1024,5.1074,5.1063,5.1038,5.0999,5.1062,5.1084,5.1093,5.0968,5.0967,5.0966,5.0965,0,0,5.1087,5.1072,5.1081,5.108,5.1073,5.1085,5.1108,5.1115,5.1124,5.1125,5.1143,5.1161,5.1138,5.114,5.1122,5.1142,5.1199,5.1114,5.1113,5.113,5.1254,5.1273,5.1284,5.1183,5.1185,5.1186,5.1255,0,5.1155,5.1194,5.1171,5.1213,5.1228,5.1192,5.1212,5.121,5.12,5.1211,5.12,5.1213,5.1181,5.1182,5.12,5.1189,5.1224,5.1183,5.12,5.1201,5.1201,5.1296,5.1316,5.1381,5.1263,5.1265,5.1266,0,5.124,5.1245,5.1288,5.1278,5.1283,5.1302,5.1306,5.1317,5.1314,5.1305,5.1308,5.1286,5.1308,5.1271,5.1301,5.1274,5.128,5.1276,5.1277,5.1278,5.1237,5.1298,5.1401,5.1411,5.1279,5.1278,5.1277,0,5.1314,5.1331,5.1358,5.1359,5.1348,5.1362,5.1358,5.1353,5.1359,5.1363,5.1366,5.1373,5.1377,5.1383,5.1363,5.1338,5.1396,5.1357,5.1389,5.139,5.1402,5.1402,5.1507,5.1407,5.1407,5.1407,5.1407,0,5.1393,5.142,5.1391,5.1408,5.1439,5.1413,5.1443,5.1436,5.1432,5.1447,5.1417,5.1432,5.1405,5.1417,5.1402,5.1429,5.1431,5.1425,5.142,5.1427,5.1428,5.143,5.1425,5.1409,5.1409,5.1408,5.1408,0,5.1479,5.1461,5.1489,5.1476,5.1474,5.1497,5.1486,5.1501,5.1489,5.1509,5.1512,5.1493,5.1506,5.1487,5.1498,5.1487,5.1525,5.1514,5.1526,5.1523,5.1555,5.1552,5.1665,5.1679,5.1571,5.1572,5.1573,0,5.1531,5.1551,5.1541,5.1549,5.1546,5.156,5.1565,5.1541,5.1548,5.1546,5.1562,5.1573,5.158,5.1602,5.1589,5.1598,5.1586,5.1625,5.1587,5.1594,5.1587,5.1585,5.1587,5.1633,5.1634,5.1635,5.1636,0,5.1623,5.1613,5.1622,5.1629,5.1636,5.164,5.1641,5.165,5.1624,5.1634,5.1646,5.1652,5.1663,5.1674,5.1679,5.1675,5.1652,5.1648,5.1656,5.1663,5.1669,5.1666,5.1547,5.1646,5.1645,5.1644,5.1644,5.1643,5.1694,5.171,5.1705,5.1717,5.1715,5.1717,5.1731,5.1721,5.1731,5.1738,5.1723,5.174,5.1737,5.1741,5.174,5.1753,5.1736,5.1747,5.175,5.1753,5.1758,5.1668,5.1754,5.1753,5.1753,5.1753,5.1753,0,5.1785,5.178,5.179,5.1793,5.1802,5.1779,5.178,5.1789,5.1804,5.1803,5.181,5.1825,5.1836,5.1824,5.1833,5.1845,5.1834,5.1848,5.1847,5.1846,5.1773,5.1765,5.1856,5.1856,5.1856,5.1856,5.1856,5.1856,5.1833,5.186,5.1849,5.1875,5.187,5.1886,5.1888,5.189,5.1889,5.1907,5.1916,5.1908,5.1903,5.191,5.1919,5.1915,5.192,5.1937,5.193,5.1861,5.1851,5.1842,5.1834,5.1939,5.1939,5.2002,5.2003,5.2003]}]]